Flag for Germany Past Weather in Fürstenwalde/Spree, Brandenburg, Germany — Yesterday and Last 2 Weeks

Now
59 °F

Clear.


Feels Like: 58 °F
Forecast: 62 / 81 °F
Wind: 6 mph from Northeast

Location: Berlin-Schoenefeld

Current Time: May 29, 2016 at 2:19:12 AM

Latest Report: May 29, 2016 at 1:50 AM


Visibility: 10 mi

Pressure: 29.86 "Hg

Humidity: 94%

Dew Point: 57 °F

Location of Fürstenwalde/SpreeLocation

Past Weather in Fürstenwalde/Spree — Graph

°F

Fürstenwalde/Spree Temperature Yesterday

Maximum temperature yesterday: 75 °F (at 4:20 PM)
Minimum temperature yesterday: 50 °F (at 4:50 AM)
Average temperature yesterday: 64 °F

High & Low Weather Summary for the Past Weeks

 TemperatureHumidityPressure
High82 °F (May 22, 2:20 PM)100% (May 23, 11:20 PM)30.07 "Hg (May 23, 11:20 PM)
Low41 °F (May 15, 6:20 AM)25% (May 19, 3:50 PM)29.56 "Hg (May 14, 1:20 AM)
Average58 °F68%29.90 "Hg
* Reported May 14 1:20 AM — May 29 1:20 AM, Fürstenwalde/Spree, Weather by CustomWeather, © 2016

Note: Actual official high and low records may vary slightly from our data, if they occured in-between our weather recording intervals... More about our weather records

Advertising

Fürstenwalde/Spree Weather History for the Previous 24 Hours

Scroll right to see more
 ConditionsComfort  
Time TempWeatherWind HumidityBarometerVisibility
1:20 AM
Sun, May 29
59 °FClear.7 mph94%29.86 "Hg10 mi
12:50 AM61 °FClear.8 mph88%29.86 "Hg10 mi
12:20 AM63 °FClear.8 mph83%29.89 "Hg10 mi
11:50 PM
Sat, May 28
63 °FClear.10 mph83%29.89 "Hg10 mi
11:20 PM64 °FClear.9 mph78%29.89 "Hg10 mi
10:50 PM64 °FClear.10 mph78%29.89 "Hg10 mi
10:20 PM66 °FClear.10 mph73%29.89 "Hg10 mi
9:50 PM66 °FSunny.8 mph73%29.89 "Hg10 mi
9:20 PM66 °FSunny.8 mph68%29.89 "Hg10 mi
8:50 PM70 °FSunny.8 mph60%29.89 "Hg10 mi
8:20 PM70 °FSunny.7 mph60%29.89 "Hg10 mi
7:50 PM72 °FSunny.8 mph57%29.89 "Hg10 mi
7:20 PM72 °FSunny.8 mph57%29.89 "Hg10 mi
6:50 PM73 °FSunny.9 mph53%29.89 "Hg10 mi
6:20 PM73 °FSunny.9 mph53%29.89 "Hg10 mi
5:50 PM75 °FScattered clouds.7 mph50%29.89 "HgN/A
5:20 PM75 °FPassing clouds.8 mph47%29.92 "HgN/A
4:50 PM75 °FPassing clouds.6 mph47%29.92 "HgN/A
4:20 PM75 °FPartly sunny.7 mph47%29.92 "HgN/A
3:50 PM73 °FPartly sunny.5 mph50%29.92 "HgN/A
3:20 PM73 °FPartly sunny.6 mph47%29.92 "HgN/A
2:50 PM73 °FBroken clouds.2 mph50%29.95 "HgN/A
2:20 PM73 °FBroken clouds.5 mph50%29.95 "HgN/A
1:50 PM73 °FPartly sunny.6 mph47%29.95 "HgN/A
1:20 PM72 °FPartly sunny.3 mph50%29.95 "HgN/A
12:50 PM72 °FPartly sunny.5 mph50%29.95 "HgN/A
12:20 PM72 °FScattered clouds.6 mph53%29.95 "HgN/A
11:50 AM70 °FScattered clouds.5 mph57%29.98 "HgN/A
11:20 AM70 °FScattered clouds.7 mph57%29.98 "HgN/A
10:50 AM70 °FPassing clouds.5 mph57%29.98 "HgN/A
10:20 AM68 °FPassing clouds.3 mph64%29.98 "HgN/A
9:50 AM66 °FPassing clouds.6 mph68%29.98 "HgN/A
9:20 AM64 °FPassing clouds.3 mph73%29.98 "HgN/A
8:50 AM63 °FPassing clouds.5 mph77%30.01 "HgN/A
8:20 AM59 °FPassing clouds.5 mph82%30.01 "HgN/A
7:50 AM57 °FPassing clouds.5 mph88%30.01 "HgN/A
7:20 AM55 °FSunny.3 mph88%30.01 "Hg10 mi
6:50 AM55 °FSunny.3 mph88%30.01 "Hg10 mi
6:20 AM54 °FSunny.3 mph88%30.01 "Hg10 mi
5:50 AM52 °FClear.5 mph94%30.01 "Hg10 mi
5:20 AM50 °FClear.5 mph94%30.01 "Hg10 mi
4:50 AM50 °FClear.6 mph94%30.01 "Hg10 mi
4:20 AM52 °FClear.5 mph94%30.01 "Hg10 mi
3:50 AM52 °FClear.2 mph94%30.01 "Hg10 mi
3:20 AM52 °FClear.3 mph94%30.01 "Hg10 mi
2:50 AM52 °FClear.2 mph94%30.01 "Hg10 mi
2:20 AM54 °FClear.3 mph94%30.01 "Hg10 mi
Weather by CustomWeather, © 2016

See weather overviewHow to use our weather pages